Weather History for Spokane Fairchild, WA

Change the Weather History Date:

Wednesday, June 4, 2014

  Actual Average Record
Temperature  
Mean Temperature 61 °F -  
Max Temperature 77 °F 65 °F 82 °F (2004)
Min Temperature 45 °F 45 °F 42 °F (2001)
Degree Days  
Heating Degree Days 4    
Growing Degree Days 11 (Base 50)    
Moisture  
Dew Point 43 °F    
Average Humidity 54    
Maximum Humidity 95    
Minimum Humidity 24    
Precipitation  
Precipitation 0.01 in - - ()
Sea Level Pressure  
Sea Level Pressure 29.95 in    
Wind  
Wind Speed 7 mph (SSW)    
Max Wind Speed 20 mph    
Max Gust Speed 25 mph    
Visibility 10 miles    
Events      
Averages and records for this station are not official NWS values.
T = Trace of Precipitation, MM = Missing Value Source: NWS Daily Summary

Daily Weather History Graph

Daily Weather History Graph

Search for Another Location

Airport:

Trip Planner

Search our weather history database for the weather conditions in past years. The results will help you decide how hot, cold, wet, or windy it might be!

Date:

Astronomy

Jun. 04, 2014 Rise Set
Actual Time 4:55 AM PDT 8:43 PM PDT
Civil Twilight 4:15 AM PDT 9:23 PM PDT
Nautical Twilight 3:21 AM PDT 10:17 PM PDT
Astronomical Twilight 2:02 AM PDT 11:37 PM PDT
Moon 11:39 AM PDT (6/4) 12:25 AM PDT (6/4)
Length of Visible Light 17h 07m
Length of Day
15h 48m
Waxing Crescent, 40% of the Moon is Illuminated
Jun 4
Waxing Crescent
Jun 5
First Quarter
Jun 12
Full
Jun 19
Last Quarter
Jun 27
New

Hourly Weather History & Observations

Time (PDT) Temp. Windchill Dew Point Humidity Pressure Visibility Wind Dir Wind Speed Gust Speed Precip Events Conditions
12:58 AM 49.8 °F - 46.9 °F 90% 29.94 in 10.0 mi North 3.5 mph - N/A   Clear
1:58 AM 49.5 °F - 46.6 °F 90% 29.94 in 10.0 mi NNW 5.8 mph - N/A   Clear
2:58 AM 45.3 °F 43.0 °F 43.9 °F 95% 29.96 in 10.0 mi West 4.6 mph - N/A   Clear
3:58 AM 46.9 °F - 44.4 °F 91% 29.96 in 10.0 mi SSW 1.2 mph - N/A   Clear
4:58 AM 47.1 °F - 45.7 °F 95% 29.98 in 10.0 mi SE 2.3 mph - N/A   Clear
5:58 AM 48.2 °F - 46.6 °F 94% 29.99 in 10.0 mi SSW 2.3 mph - N/A   Clear
6:58 AM 54.0 °F - 50.0 °F 86% 30.01 in 10.0 mi SSE 6.9 mph - N/A   Clear
7:58 AM 57.4 °F - 49.5 °F 75% 30.02 in 10.0 mi Variable 5.8 mph - N/A   Clear
8:58 AM 60.1 °F - 48.9 °F 67% 30.02 in 10.0 mi South 4.6 mph - N/A   Clear
9:58 AM 63.3 °F - 48.6 °F 59% 30.02 in 10.0 mi Variable 6.9 mph - N/A   Clear
10:58 AM 67.1 °F - 46.9 °F 48% 30.01 in 10.0 mi SSW 11.5 mph - N/A   Clear
11:58 AM 69.6 °F - 47.5 °F 45% 30.00 in 10.0 mi SSE 6.9 mph - N/A   Clear
12:58 PM 70.5 °F - 46.2 °F 42% 29.99 in 10.0 mi SSW 6.9 mph 17.3 mph 0.01 in   Scattered Clouds
1:58 PM 74.5 °F - 43.0 °F 32% 29.97 in 10.0 mi SSW 11.5 mph 21.9 mph N/A   Scattered Clouds
2:47 PM 75.2 °F - 42.8 °F 31% 29.97 in 10.0 mi SSW 13.8 mph 23.0 mph N/A   Mostly Cloudy
2:58 PM 76.1 °F - 43.7 °F 31% 29.96 in 10.0 mi South 16.1 mph 23.0 mph N/A   Mostly Cloudy
3:04 PM 75.2 °F - 42.8 °F 31% 29.96 in 10.0 mi SW 16.1 mph 20.7 mph N/A   Mostly Cloudy
3:58 PM 75.9 °F - 41.5 °F 29% 29.94 in 10.0 mi SSW 13.8 mph - N/A   Partly Cloudy
4:58 PM 77.0 °F - 38.8 °F 25% 29.92 in 10.0 mi SSW 15.0 mph 19.6 mph N/A   Clear
5:58 PM 75.9 °F - 36.5 °F 24% 29.91 in 10.0 mi SW 19.6 mph 25.3 mph N/A   Clear
6:58 PM 72.9 °F - 33.6 °F 24% 29.88 in 10.0 mi SW 9.2 mph - N/A   Clear
7:58 PM 67.6 °F - 36.7 °F 32% 29.88 in 10.0 mi SSW 4.6 mph - N/A   Partly Cloudy
8:58 PM 64.4 °F - 37.2 °F 37% 29.87 in 10.0 mi South 5.8 mph - N/A   Clear
9:58 PM 60.1 °F - 38.7 °F 45% 29.88 in 10.0 mi SW 10.4 mph - N/A   Clear
10:58 PM 60.3 °F - 33.4 °F 37% 29.86 in 10.0 mi WSW 9.2 mph - N/A   Clear
11:58 PM 57.0 °F - 33.6 °F 41% 29.86 in 10.0 mi WSW 9.2 mph - N/A   Clear